CAPE
1826 1462 1526 1496 1360 1453 1328 1383 1398 1243 1050 1046 1024 995 830 761 630 364 651 382 429 450
290 2024 1666 1728 1665 1510 1598 1588 1617 1623 1415 1268 1211 1097 1053 925 801 833 548 850 687 536
0 737 2103 1873 1760 1795 1412 1849 1660 1653 1725 1479 1373 1312 1168 1039 1011 842 890 783 832 827
0 13 1621 2113 1849 1685 1762 1470 1791 1650 1612 1560 1408 1354 1199 1146 1027 963 885 891 906 939
31 77 94 1066 1782 1673 1700 1653 1602 1657 1564 1575 1426 1327 1201 1194 1101 947 910 865 767 912
285 71 3 373 1058 1322 1449 1505 1638 1762 1652 1758 1699 1447 1422 1327 1016 824 785 788 912 881
286 476 210 82 161 1268 1434 1445 1511 1686 1716 1819 1913 1737 1744 1691 1153 830 765 908 914 817
233 494 412 394 624 682 1251 1501 1513 1621 1788 1912 2006 2010 2125 1779 1166 963 871 730 692 571
130 560 606 470 620 1302 1380 1626 1675 1702 1822 1971 2050 1913 1837 1528 1061 794 548 331 39 0
70 320 769 719 846 968 1218 1541 1813 1946 1979 2099 2030 1349 1299 1147 533 220 144 31 0 0
0 239 625 809 628 661 963 1231 1468 1654 1778 1461 977 862 809 516 107 10 0 0 0 0
0 99 514 691 628 649 560 747 1152 1081 1011 841 343 283 391 55 2 1 0 1 0 0
0 0 389 693 715 692 485 466 385 424 279 202 161 29 19 8 0 1 1 3 2 1
0 0 0 122 695 604 500 277 179 205 68 0 1 0 1 0 0 0 1 1 1 1
CIN
-147 -165 -141 -161 -147 -127 -146 -178 -208 -259 -287 -289 -287 -246 -255 -227 -281 -308 -224 -311 -238 -207
-126 -71 -136 -123 -171 -128 -90 -115 -172 -198 -260 -276 -260 -264 -229 -234 -242 -226 -274 -192 -200 -197
-0 -142 -77 -119 -127 -117 -148 -72 -120 -168 -219 -261 -248 -239 -240 -238 -227 -230 -225 -223 -166 -149
-0 -39 -55 -70 -122 -129 -135 -165 -85 -131 -215 -261 -257 -238 -222 -238 -238 -220 -229 -203 -177 -140
-354 -319 -303 -116 -93 -140 -148 -164 -149 -126 -178 -235 -277 -262 -244 -226 -233 -239 -229 -220 -201 -156
-190 -289 -295 -224 -145 -151 -156 -151 -135 -114 -119 -169 -215 -235 -211 -202 -228 -268 -247 -229 -215 -183
-135 -132 -258 -333 -293 -127 -134 -145 -129 -104 -115 -102 -110 -129 -123 -137 -210 -271 -243 -196 -209 -196
-119 -85 -118 -164 -172 -180 -100 -95 -109 -92 -66 -55 -54 -63 -86 -132 -209 -234 -219 -224 -225 -235
-133 -73 -92 -126 -119 -57 -66 -49 -51 -51 -46 -37 -32 -56 -110 -127 -163 -241 -303 -326 -475 -0
-145 -97 -88 -103 -85 -77 -56 -40 -29 -19 -9 -4 -12 -110 -138 -122 -223 -385 -424 -522 -0 -0
-0 -77 -77 -93 -120 -113 -63 -32 -36 -29 -20 -40 -150 -194 -177 -206 -385 -218 -0 -0 -0 -0
-0 -63 -48 -77 -109 -105 -108 -53 -34 -63 -83 -151 -314 -335 -230 -446 -528 -0 -0 -0 -0 -0
-0 -0 -25 -32 -65 -90 -114 -106 -131 -128 -198 -299 -355 -600 -586 -704 -0 -0 -0 -0 -0 -0
-0 -0 -0 -54 -8 -58 -100 -162 -203 -202 -385 -0 -338 -0 -0 -0 -0 -0 -0 -0 -0 -0
Wind_Speed
33 32 31 29 27 26 25 25 23 22 22 22 21 20 19 19 18 19 18 18 17 17
37 34 32 31 30 30 28 27 24 24 23 22 22 21 21 20 20 19 19 19 18 18
40 38 34 33 32 30 31 29 26 25 24 23 22 23 23 22 21 21 20 19 19 18
36 36 35 33 34 33 32 30 29 26 26 25 24 23 25 23 22 22 21 19 18 17
35 34 35 37 34 33 33 32 31 28 27 27 25 24 25 24 22 22 21 20 18 18
34 35 38 38 36 36 36 35 34 32 30 29 28 26 25 25 23 22 21 19 18 17
32 34 35 36 39 38 37 37 37 35 34 32 30 28 26 25 24 22 21 20 18 17
35 34 36 37 37 38 40 39 39 38 37 35 33 31 27 26 25 23 21 19 18 16
37 36 37 37 38 39 39 38 38 38 38 37 35 33 29 27 26 23 20 19 17 16
40 40 38 37 38 39 40 39 38 37 37 37 35 32 28 28 26 23 21 18 17 16
43 41 38 38 39 39 36 35 37 36 34 32 29 26 26 26 26 23 21 18 16 15
42 42 39 38 38 36 36 36 35 33 32 30 28 24 25 25 25 24 21 18 16 15
42 44 42 40 38 35 33 34 32 33 30 31 31 25 25 26 25 24 22 19 17 15
39 41 43 42 38 35 34 32 31 32 31 31 31 29 29 27 27 26 24 22 20 17
Wind_Direction
255 256 259 259 262 260 257 257 258 252 250 250 252 253 253 254 253 255 264 262 270 282
266 259 258 261 259 261 261 261 258 256 252 253 254 253 253 253 252 261 260 269 270 275
269 267 260 261 261 262 259 264 260 256 256 255 258 257 254 253 255 258 267 267 273 275
271 269 267 262 262 264 263 257 262 257 257 257 258 262 256 253 255 257 263 269 269 273
275 273 270 267 265 263 263 262 260 258 256 258 260 261 254 250 253 255 257 261 265 273
278 276 273 272 269 266 265 265 263 260 259 258 260 262 257 250 251 255 257 258 262 268
287 284 279 276 272 270 267 266 266 263 261 262 262 262 259 249 251 254 257 258 260 265
289 289 286 281 277 274 271 268 267 266 264 263 261 259 253 247 249 251 254 258 263 267
288 288 288 287 283 278 274 271 269 266 264 262 261 258 247 248 251 248 247 254 261 271
285 285 286 287 286 284 278 274 270 268 265 263 261 253 245 246 250 246 247 247 255 266
285 285 285 286 285 284 284 278 273 270 268 264 259 247 242 242 246 248 247 247 252 258
287 284 282 283 285 286 283 279 273 269 264 262 255 246 239 242 243 245 247 247 250 252
285 284 283 281 281 282 285 283 278 270 266 258 256 246 236 237 240 243 245 247 249 247
285 283 282 282 278 279 279 280 279 272 268 262 257 247 239 237 238 241 240 243 247 250